Ahoskie, NC

7:54 PM EDT on September 20, 2019 (GMT -0400)
Tri County

Weather History for KASJ - August, 2019

Change the Weather History Date:

Thursday, August 22, 2019

  Actual Average (KEMV) Record (KEMV)
Temperature  
Mean Temperature 80 °F -  
Max Temperature 91 °F 85 °F 99 °F (1983)
Min Temperature 70 °F 60 °F 50 °F (1984)
Cooling Degree Days 16    
Growing Degree Days 30 (Base 50)    
Moisture  
Dew Point 73 °F    
Average Humidity 86    
Maximum Humidity 100    
Minimum Humidity 60    
Precipitation  
Precipitation 0.04 in - - ()
Sea Level Pressure  
Sea Level Pressure 29.99 in    
Wind  
Wind Speed 4 mph (SSW)    
Max Wind Speed 14 mph    
Max Gust Speed 24 mph    
Visibility 10 miles    
Events Rain    
Averages and records for this station are not official NWS values.
T = Trace of Precipitation, MM = Missing Value Source: NWS Daily Summary

Daily Weather History Graph

Daily Weather History Graph

Search for Another Location

Airport or City:

Astronomy

Aug. 22, 2019 Rise Set
Actual Time 6:32 AM EDT 7:50 PM EDT
Civil Twilight 6:05 AM EDT 8:17 PM EDT
Nautical Twilight 5:33 AM EDT 8:49 PM EDT
Astronomical Twilight 4:59 AM EDT 9:22 PM EDT
Moon 11:51 PM EDT (8/22) 12:54 PM EDT (8/22)
Length of Visible Light 14h 12m
Length of Day
13h 18m
Waning Gibbous, 60% of the Moon is Illuminated
Aug 22
Waning Gibbous
Aug 23
Last Quarter
Aug 30
New
Sep 5
First Quarter
Sep 14
Full

Hourly Weather History & Observations

Time (EDT) Temp. Heat Index Dew Point Humidity Pressure Visibility Wind Dir Wind Speed Gust Speed Precip Events Conditions
12:15 AM 77.2 °F - 68.4 °F 74% 30.01 in 10.0 mi WSW 4.6 mph - N/A   Clear
12:35 AM 76.3 °F - 68.4 °F 76% 30.01 in 10.0 mi SW 4.6 mph - N/A   Clear
12:55 AM 75.6 °F - 68.7 °F 79% 30.01 in 10.0 mi SW 3.5 mph - N/A   Clear
1:15 AM 75.2 °F - 69.1 °F 81% 30.00 in 10.0 mi Calm Calm - N/A   Clear
1:35 AM 74.5 °F - 69.4 °F 84% 29.99 in 10.0 mi Calm Calm - N/A   Clear
1:55 AM 73.9 °F - 69.8 °F 87% 29.99 in 10.0 mi Calm Calm - N/A   Clear
2:15 AM 72.9 °F - 70.2 °F 91% 29.99 in 10.0 mi Calm Calm - N/A   Clear
2:35 AM 72.0 °F - 70.7 °F 96% 29.99 in 10.0 mi Calm Calm - N/A   Clear
2:55 AM 71.2 °F - 70.9 °F 99% 29.98 in 10.0 mi Calm Calm - N/A   Clear
3:15 AM 71.4 °F - 70.7 °F 98% 29.98 in 10.0 mi Calm Calm - N/A   Scattered Clouds
3:35 AM 71.2 °F - 71.1 °F 99% 29.99 in 10.0 mi Calm Calm - N/A   Mostly Cloudy
3:55 AM 71.2 °F - 71.1 °F 99% 29.99 in 10.0 mi Calm Calm - N/A   Overcast
4:15 AM 71.6 °F - 70.7 °F 97% 29.98 in 10.0 mi South 3.5 mph - N/A   Overcast
4:35 AM 71.8 °F - 70.5 °F 96% 29.98 in 10.0 mi South 6.9 mph - N/A   Mostly Cloudy
4:55 AM 70.7 °F - 70.7 °F 100% 29.97 in 10.0 mi South 5.8 mph - N/A   Scattered Clouds
5:15 AM 71.2 °F - 70.5 °F 98% 29.97 in 10.0 mi South 4.6 mph - N/A   Clear
5:55 AM 72.5 °F - 70.9 °F 95% 29.98 in 10.0 mi South 3.5 mph - N/A   Clear
6:15 AM 72.9 °F - 71.6 °F 96% 29.99 in 10.0 mi South 5.8 mph - N/A   Clear
6:35 AM 72.5 °F - 72.5 °F 100% 30.00 in 10.0 mi SSE 6.9 mph - N/A   Clear
6:55 AM 73.0 °F - 72.9 °F 99% 30.01 in 10.0 mi South 5.8 mph - N/A   Clear
7:15 AM 73.4 °F - 72.9 °F 98% 30.01 in 10.0 mi South 5.8 mph - N/A   Clear
7:35 AM 73.6 °F - 73.2 °F 99% 30.01 in 10.0 mi Calm Calm - N/A   Clear
7:55 AM 74.3 °F - 73.2 °F 96% 30.02 in 10.0 mi SSW 3.5 mph - N/A   Clear
8:15 AM 75.6 °F - 73.2 °F 92% 30.02 in 10.0 mi SSW 3.5 mph - N/A   Clear
8:35 AM 75.6 °F - 73.4 °F 93% 30.02 in 10.0 mi SSW 4.6 mph - N/A   Clear
8:55 AM 75.7 °F - 73.6 °F 93% 30.03 in 10.0 mi SSW 4.6 mph - N/A   Clear
9:15 AM 76.5 °F - 73.9 °F 92% 30.03 in 10.0 mi SSW 4.6 mph - N/A   Clear
9:35 AM 77.0 °F - 74.5 °F 92% 30.03 in 10.0 mi SSW 4.6 mph - N/A   Clear
9:55 AM 77.5 °F - 74.7 °F 91% 30.03 in 10.0 mi SW 4.6 mph - N/A   Clear
10:15 AM 78.6 °F - 75.4 °F 90% 30.03 in 10.0 mi WSW 3.5 mph - N/A   Clear
10:35 AM 79.9 °F - 75.4 °F 86% 30.03 in 10.0 mi WSW 3.5 mph - N/A   Clear
10:55 AM 82.4 °F 89.8 °F 75.7 °F 80% 30.02 in 10.0 mi SW 4.6 mph - N/A   Clear
11:15 AM 83.1 °F 91.3 °F 75.9 °F 79% 30.02 in 10.0 mi Calm Calm - N/A   Clear
11:35 AM 83.5 °F 91.9 °F 76.1 °F 78% 30.02 in 10.0 mi South 3.5 mph - N/A   Clear
11:55 AM 84.7 °F 94.0 °F 76.1 °F 75% 30.01 in 10.0 mi Calm Calm - N/A   Clear
12:15 PM 86.0 °F 96.0 °F 76.1 °F 72% 30.00 in 10.0 mi SSW 3.5 mph - N/A   Clear
12:35 PM 86.0 °F 96.4 °F 76.6 °F 73% 30.00 in 10.0 mi South 5.8 mph - N/A   Clear
12:55 PM 86.7 °F 98.3 °F 77.0 °F 73% 30.00 in 10.0 mi SSW 4.6 mph - N/A   Clear
1:15 PM 87.4 °F 97.2 °F 75.4 °F 67% 29.99 in 10.0 mi South 5.8 mph - N/A   Clear
1:35 PM 88.7 °F 101.0 °F 76.8 °F 68% 29.99 in 10.0 mi SSW 6.9 mph - N/A   Clear
1:55 PM 89.2 °F 101.8 °F 77.0 °F 67% 29.99 in 10.0 mi South 10.4 mph - N/A   Clear
2:15 PM 90.0 °F 101.9 °F 76.5 °F 64% 29.98 in 10.0 mi South 8.1 mph - N/A   Clear
2:35 PM 90.3 °F 100.4 °F 74.8 °F 60% 29.98 in 10.0 mi SW 5.8 mph - N/A   Clear
2:55 PM 90.1 °F 100.6 °F 75.0 °F 61% 29.97 in 10.0 mi South 6.9 mph - N/A   Clear
3:15 PM 90.9 °F 105.0 °F 77.5 °F 65% 29.95 in 10.0 mi SSE 10.4 mph - N/A   Scattered Clouds
3:35 PM 91.4 °F 103.8 °F 76.5 °F 61% 29.94 in 10.0 mi SSE 11.5 mph 17.3 mph N/A   Clear
3:55 PM 90.0 °F 101.9 °F 76.3 °F 64% 29.93 in 10.0 mi South 6.9 mph - N/A   Scattered Clouds
4:15 PM 88.9 °F 100.9 °F 76.5 °F 67% 29.93 in 10.0 mi South 5.8 mph - N/A   Scattered Clouds
4:35 PM 91.0 °F 102.9 °F 75.9 °F 61% 29.92 in 10.0 mi South 9.2 mph - N/A   Scattered Clouds
4:55 PM 91.2 °F 102.7 °F 75.4 °F 60% 29.92 in 10.0 mi South 10.4 mph - N/A   Scattered Clouds
5:15 PM 88.9 °F 98.6 °F 74.8 °F 63% 29.93 in 10.0 mi South 6.9 mph - N/A   Clear
5:35 PM 86.9 °F 95.4 °F 74.3 °F 66% 29.96 in 10.0 mi West 13.8 mph 23.0 mph N/A   Scattered Clouds
5:55 PM 78.1 °F - 68.9 °F 73% 29.96 in 10.0 mi WNW 8.1 mph 24.2 mph N/A   Mostly Cloudy
6:15 PM 74.1 °F - 72.1 °F 94% 29.96 in 7.0 mi WSW 3.5 mph - 0.03 in Rain Light Rain
6:35 PM 73.4 °F - 73.4 °F 100% 29.96 in 10.0 mi Calm Calm - 0.03 in Rain Light Rain
6:55 PM 74.3 °F - 73.2 °F 96% 29.96 in 10.0 mi Calm Calm - 0.03 in Rain Light Rain
7:15 PM 74.3 °F - 73.8 °F 98% 29.95 in 10.0 mi Calm Calm - N/A   Scattered Clouds
7:55 PM 74.5 °F - 73.6 °F 97% 30.02 in 10.0 mi Calm Calm - N/A   Overcast
8:15 PM 74.5 °F - 74.1 °F 99% 30.01 in 10.0 mi South 5.8 mph - N/A   Mostly Cloudy
8:55 PM 73.6 °F - 73.6 °F 100% 30.02 in 2.5 mi SSE 4.6 mph - N/A Rain Light Rain
9:15 PM 73.8 °F - 73.8 °F 100% 30.04 in 10.0 mi SSE 6.9 mph - N/A Rain Light Rain
9:55 PM 74.3 °F - 74.3 °F 100% 30.03 in 10.0 mi South 8.1 mph - N/A   Mostly Cloudy
10:15 PM 73.6 °F - 73.6 °F 100% 30.02 in 10.0 mi SE 3.5 mph - N/A   Scattered Clouds
10:35 PM 73.4 °F - 73.4 °F 100% 30.01 in 10.0 mi SSE 4.6 mph - N/A   Clear
10:55 PM 72.9 °F - 72.9 °F 100% 30.01 in 10.0 mi South 5.8 mph - N/A Rain Light Rain
11:15 PM 72.5 °F - 72.5 °F 100% 30.01 in 10.0 mi South 4.6 mph - 0.01 in Rain Light Rain
11:35 PM 72.1 °F - 72.1 °F 100% 30.01 in 10.0 mi South 3.5 mph - 0.01 in Rain Light Rain
11:55 PM 72.0 °F - 72.0 °F 100% 30.01 in 10.0 mi South 3.5 mph - 0.01 in   Scattered Clouds